NOAA 16 DEB

Satellite information

Favourite Embed

Satellite Type and Status

DEBRISIN ORBIT

Key statistics

Satellite NOAA 16 DEB at a glance.

Uptime

9113

Days in orbit

Revolutions

≈ 14.4

Per day

Orbit

SSO

Sun Synchronous Orbit

Inclination

98.9

Latest

Satellite identification and parameters

Extended collection of information and parameters for NOAA 16 DEB.

Object identification

Identified? True

Debris? True

Object name: NOAA 16 DEB

International designator: 2000-055NS

Object number (NORAD): 41653

Object ID (CCSDS): 41653

Country: UNITED STATES OF AMERICA (US)

Current information (Y/N): Y

RCS size: SMALL

Orbital parameters

Period: 100.17 minutes

Inclination: 98.8576 deg

SMA: 7144.724 km

Apoapsis: 769.48 km

Periapsis: 763.698 km

RAAN: 6.049 deg

Eccentricy: 0.00040463

Argument of periapsis: 12.9024 deg

Mean anomaly: 347.2264 deg

Mean motion: 14.37555419 rev/day

Mean motion (dot): 0.00016106 rev/day2

B* drag term: 0.0053757423 1/REarth

Two-line elements (TLE)

Creation date: Sept. 2, 2025, 10:20 a.m.

Reference frame: TEME

Reference center: EARTH

Epoch: Sept. 2, 2025, 4:07 a.m. UTC

TLE line 0: 0 NOAA 16 DEB

TLE line 1: 1 41653U 00055NS 25245.17153227 .00016106 00000-0 53757-2 0 9998

TLE line 2: 2 41653 98.8576 6.0490 0004046 12.9024 347.2264 14.37555419485778

Live tracking on map

Real-time ground track for satellite NOAA 16 DEB.

In-orbit conjunctions

A list of the most updated potential collisions computed for object NOAA 16 DEB.

Target Orbit TCA Probability of collision Miss distance Type
CZ-6A DEB LEO 2025-02-03 23:50:11 0.0002327223 181.0 (m) DEBRIS
CZ-6A DEB LEO 2025-02-02 19:09:58 0.0003172308 295.0 (m) DEBRIS
METEOR 2-5 DEB LEO 2025-01-01 09:43:53 0.0003458989 90.0 (m) DEBRIS
THOR BURNER 2 R/B SSO 2024-12-15 12:00:01 0.0008779573 104.0 (m) ROCKET BODY

Associated space launch

The NOAA K, L and M POES satellites begin the fifth generation of improved environmental monitoring in support of NOAA missions. The instrument payload has significant improvements and additions/deletions. The instrument changes have effected the spacecraft subsystems and data formats.

NOAA 16 DEB was lifted into orbit during the mission ‘Titan II SLV | NOAA 16’, on board a Titan II SLV space rocket.

The launch took place on Sept. 21, 2000, 10:22 a.m. from Space Launch Complex 4W.

For more information about the launch, click the button.

Launch to space Titan II SLV | NOAA 16
Titan II SLV | NOAA 16

Agency: N/A

Status: Launch Successful

Launch date: Sept. 21, 2000, 10:22 a.m. UTC

Rocket: Titan II SLV

Launch pad: Space Launch Complex 4W

Location: Vandenberg SFB, CA, USA

...

Latest news about this satellite

There are no fresh news available about this satellite. Check back as we update our databases every day.


Newsletter sign-up

Weekly statistics, charts and insights to help you stay on top of the space industry.